Location: Newark
(31.5350°N, 35.0986°E)
Time: 15:59:14
(UTC+00:00)

Transit 2A Rocket - Visible Passes

Search period start: 23 October 2019 00:00
Search period end: 02 November 2019 00:00
Orbit: 594 x 909 km, 66.7° (Epoch: 22 October)

Date Brightness Start Highest point End Pass type
(mag) Time Alt. Az. Time Alt. Az. Time Alt. Az.
23 Oct 6.3 01:28:10 30° NNE 01:28:10 30° NNE 01:30:33 10° NNE visible
24 Oct 7.7 00:47:42 11° NE 00:47:42 11° NE 00:47:54 10° NE visible
24 Oct 6.7 02:27:40 15° NNW 02:27:40 15° NNW 02:29:03 10° NNW visible
25 Oct 7.1 01:47:00 12° N 01:47:00 12° N 01:47:28 10° N visible
